EW9766 Weather Reports


Display with metric or nautical units.
time (UTC)temp
F
wind
direction
speed
MPH
gust
MPH
rain 1hr
in
rain 24hr
in
rain mn
in
humidity
%
barometer
mb
20260906061534 49 153 5.0 8.0 0.00 0.11 0.11 93 1018.4
20260906060142 49 154 4.0 6.0 0.00 0.12 0.11 93 1018.5
20260906054532 49 176 5.0 7.0 0.00 0.13 0.11 93 1018.5
20260906053032 49 154 4.0 7.0 0.00 0.13 0.11 92 1018.6
20260906051535 49 155 4.0 6.0 0.00 0.13 0.11 92 1018.7
20260906050033 50 142 5.0 10.0 0.00 0.13 0.11 92 1018.7
20260906044538 50 138 4.0 8.0 0.00 0.13 0.11 92 1018.8
20260906043153 50 141 4.0 7.0 0.00 0.13 0.11 92 1018.9
20260906043144 50 144 4.0 8.0 0.00 0.13 0.11 92 1018.9
20260906040034 50 156 5.0 8.0 0.00 0.13 0.11 92 1018.8
20260906034533 50 176 4.0 7.0 0.00 0.13 0.11 91 1018.7
20260906033045 50 175 4.0 7.0 0.00 0.13 0.11 91 1018.6
20260906031535 51 160 4.0 6.0 0.00 0.13 0.11 90 1018.4
20260906024532 52 152 4.0 6.0 0.00 0.13 0.11 90 1018.3
20260906023035 53 150 3.0 5.0 0.00 0.13 0.11 89 1018.4
20260906020034 54 157 0.0 1.0 0.00 0.13 0.11 87 1018.4
20260906014534 54 157 0.0 1.0 0.00 0.13 0.11 86 1018.4
20260906013030 55 157 0.0 1.0 0.00 0.13 0.11 84 1018.4
20260906011643 56 188 0.0 3.0 0.00 0.13 0.11 84 1018.6
20260906010034 56 202 0.0 1.0 0.00 0.13 0.11 84 1018.8
20260906004529 57 202 0.0 1.0 0.00 0.13 0.11 84 1018.8
20260906003106 58 238 2.0 5.0 0.00 0.13 0.11 84 1018.8
20260906001531 58 217 3.0 7.0 0.07 0.13 0.11 85 1018.8
20260906000036 57 171 1.0 4.0 0.11 0.13 0.11 86 1018.8
20260905231535 59 270 0.0 3.0 0.04 0.06 0.00 79 1019.0
20260905224535 62 276 3.0 7.0 0.00 0.02 0.00 78 1018.7
20260905221606 59 200 2.0 5.0 0.00 0.02 0.00 79 1018.9
20260905220032 60 241 2.0 5.0 0.00 0.02 0.00 79 1018.7
20260905213033 60 304 2.0 7.0 0.00 0.02 0.00 80 1018.7
20260905211534 59 279 1.0 4.0 0.00 0.02 0.00 81 1018.9
20260905204534 59 315 1.0 5.0 0.00 0.02 0.00 81 1019.1
20260905203143 59 330 2.0 6.0 0.00 0.02 0.00 82 1019.1
20260905201533 57 349 1.0 4.0 0.00 0.02 0.00 83 1019.1
20260905194608 57 260 1.0 5.0 0.00 0.02 0.00 85 1019.3
20260905193030 56 316 2.0 5.0 0.00 0.02 0.00 85 1019.4
20260905191533 56 300 1.0 4.0 0.00 0.02 0.00 85 1019.4
20260905190035 55 278 0.0 4.0 0.00 0.02 0.00 85 1019.5
20260905184531 56 263 1.0 4.0 0.00 0.02 0.00 85 1019.6
20260905183031 56 275 2.0 5.0 0.00 0.02 0.00 85 1019.6
20260905181532 56 310 2.0 5.0 0.00 0.02 0.00 85 1019.7
20260905180037 57 320 3.0 7.0 0.00 0.02 0.00 86 1019.7
20260905173031 55 301 2.0 5.0 0.00 0.02 0.00 89 1019.7
20260905171535 55 277 0.0 4.0 0.00 0.02 0.00 89 1019.6
20260905170035 53 247 0.0 2.0 0.00 0.02 0.00 90 1019.6
20260905164536 53 206 0.0 0.0 0.00 0.02 0.00 91 1019.6
20260905163035 52 202 0.0 0.0 0.00 0.02 0.00 92 1019.5
20260905161528 52 201 0.0 0.0 0.00 0.02 0.00 92 1019.5
20260905160030 51 180 0.0 0.0 0.00 0.03 0.00 92 1019.4
20260905154651 50 180 0.0 0.0 0.00 0.03 0.00 93 1019.4
20260905153032 49 180 0.0 2.0 0.00 0.03 0.00 93 1019.3
20260905151536 49 178 3.0 6.0 0.00 0.03 0.00 93 1019.2
20260905150036 48 160 3.0 8.0 0.00 0.03 0.00 94 1019.2
20260905144534 48 147 4.0 8.0 0.00 0.03 0.00 94 1019.2
20260905143031 47 152 6.0 10.0 0.00 0.03 0.00 94 1019.1
20260905141532 46 146 6.0 11.0 0.00 0.03 0.00 94 1019.1
20260905140105 45 168 4.0 9.0 0.00 0.03 0.00 94 1018.9
20260905134531 45 152 4.0 7.0 0.00 0.03 0.00 94 1018.8
20260905133033 45 153 4.0 7.0 0.00 0.03 0.00 94 1018.7
20260905131530 45 152 4.0 7.0 0.00 0.03 0.00 94 1018.7
20260905130036 45 146 4.0 6.0 0.00 0.03 0.00 94 1018.6
20260905123033 46 155 2.0 4.0 0.00 0.03 0.00 94 1018.7
20260905121608 46 144 3.0 6.0 0.00 0.03 0.00 94 1018.7
20260905114536 46 162 3.0 6.0 0.00 0.04 0.00 93 1018.5
20260905113034 47 168 3.0 5.0 0.00 0.04 0.00 93 1018.4
20260905111533 47 135 3.0 5.0 0.00 0.04 0.00 93 1018.4
20260905110036 47 158 0.0 4.0 0.00 0.04 0.00 93 1018.5
20260905104530 48 172 1.0 3.0 0.00 0.04 0.00 93 1018.5
20260905103032 48 144 1.0 3.0 0.00 0.04 0.00 93 1018.4
20260905101608 48 172 3.0 5.0 0.00 0.04 0.00 93 1018.4
20260905100036 48 167 3.0 6.0 0.00 0.04 0.00 93 1018.5
20260905094543 48 154 4.0 7.0 0.00 0.04 0.00 93 1018.4
20260905091536 48 176 4.0 7.0 0.00 0.04 0.00 93 1018.4
20260905090032 48 164 4.0 8.0 0.00 0.04 0.00 93 1018.4
20260905081531 48 141 4.0 9.0 0.00 0.04 0.00 93 1018.3
20260905080035 48 142 3.0 4.0 0.00 0.04 0.00 93 1018.3
20260905074531 48 142 4.0 6.0 0.00 0.04 0.00 93 1018.1
20260905071536 48 156 3.0 6.0 0.00 0.04 0.00 92 1017.9
20260905070030 48 160 3.0 7.0 0.01 0.04 0.00 92 1017.8
20260905064535 49 160 2.0 5.0 0.02 0.04 0.04 92 1017.7
20260905063035 50 161 3.0 5.0 0.02 0.04 0.04 92 1017.6